www.pogodaiklimat.ru

Погода и климат >> Архив погоды >> Доминиканская Республика >> Santo Domingo


АРХИВ ПОГОДЫ в Santo Domingo

Время (UTC), дата Ветер
(напр.,м/с)
 
Видим.   Явления Облачность Т
(С)
Тd
(С)
f
(%)
Тe
(С)
Тes
(С)
Комфортность P
(гПа)
Po
(гПа)
Тmin
(С)
Tmax
(С)
R
(мм)
R24
(мм)
S
(см)
00 7.12 СВ 2 16 км 9/6 540 м
[Cu med, cong Ac As]
+27.0 +24.3 85 +38 +38 очень
душно
1018.6 1019.0 +24.0 +31.5
03 7.12 СВ 2 16 км 4/4 540 м
[Cu med, cong]
+26.3 +23.2 83 +35 +35 очень
душно
1019.6 1020.0
06 7.12 С 2 16 км 3/3 480 м
[Cu med, cong]
+24.2 +22.5 90 +32 +32 очень
душно
1018.8 1019.0 +24.0 +31.6
09 7.12 С 2 16 км 3/3 480 м
[Cu med, cong]
+23.0 +21.6 92 +31 +31 очень
душно
1018.6 1019.0
12 7.12 С 2 16 км 1/1 480 м
[Cu med, cong]
+23.4 +21.1 87 +31 +32 очень
душно
1020.6 1021.0 +21.5 +31.6
15 7.12 СВ 2 16 км 5/5 540 м
[Cu med, cong Ci]
+27.7 +22.4 73 +36 +41 очень
душно
1022.6 1023.0
18 7.12 С 3 16 км {дождь} 6/4 600 м
[Cb cap Ac cuf]
+29.3 +23.7 72 +40 +44 очень
душно
1018.6 1019.0 +21.5 +30.5 1
21 7.12 С 2 14 км гроза, ливневой дождь 9/8 420 м
[Cb cap As op]
+25.3 +24.5 95 +35 +36 очень
душно
1018.2 1018.0 5
03 8.12 штиль 0 16 км 3/3 480 м
[Cu med, cong]
+23.8 +22.7 94 +31 +31 очень
душно
1020.6 1021.0
06 8.12 ЮЗ 66 60 км 4/1 540 м
[Cu med, cong]
+24.8 +22.0 84 +32 +32 очень
душно
1019.2 1019.0 +21.5 +30.5
09 8.12 С 44 16 км 1/1 480 м
[Cu med, cong]
+23.4 +22.0 92 +32 +32 очень
душно
1018.6 1019.0
12 8.12 штиль 0 16 км 1/1 480 м
[Cu med, cong]
+23.2 +21.8 92 +31 +32 очень
душно
1019.6 1020.0 +23.2 +30.5
15 8.12 СВ 2 16 км 3/3 540 м
[Cu med, cong]
+27.2 +22.0 73 +35 +42 очень
душно
1020.2 1020.0
18 8.12 СВ 2 16 км 5/5 750 м
[Cu med, cong]
+30.5 +20.9 57 +38 +43 очень
душно
1018.1 1018.0 +23.2 +32.2
21 8.12 В 2 16 км 5/5 660 м
[Cu Sc]
+30.2 +21.6 60 +38 +39 очень
душно
1017.0 1017.0
06 9.12 С 2 16 км 9/8 480 м
[Cu Sc Ac trans]
+24.6 +22.1 86 +32 +32 очень
душно
1018.6 1019.0 +23.2 +33.2
09 9.12 штиль 0 16 км 8/6 450 м
[Cb cap Ac trans]
+24.0 +22.0 89 +31 +31 очень
душно
1017.8 1018.0
12 9.12 штиль 0 16 км 3/3 300 м
[Cb cap Ac trans]
+24.0 +22.0 89 +31 +32 очень
душно
1018.9 1019.0 +24.0 +32.2
15 9.12 В 4 16 км 4/4 540 м
[Cu med, cong]
+27.6 +22.7 75 +37 +41 очень
душно
1019.8 1020.0
18 9.12 ЮВ 4 16 км 4/4 660 м
[Cu med, cong]
+30.6 +23.3 65 +41 +45 опасность
перегрева
1017.8 1018.0 +24.0 +31.0
21 9.12 штиль 0 16 км 3/3 540 м
[Cu med, cong]
+28.6 +22.9 71 +38 +39 очень
душно
1017.1 1017.0
00 10.12 ЮВ 2 16 км 5/5 540 м
[Cu med, cong]
+25.3 +23.7 91 +21 +21 комфорт 1018.2 1018.0 +24.0 +32.2
03 10.12 ЮВ 2 16 км 5/5 540 м
[Cu med, cong]
+27.0 +24.3 85 +38 +38 очень
душно
1018.8 1019.0
06 10.12 С 2 16 км 3/3 480 м
[Cu med, cong]
+25.0 +23.6 92 +34 +34 очень
душно
1018.3 1018.0 +24.0 +32.2
09 10.12 С 2 16 км 3/3 480 м
[Cu med, cong]
+24.2 +22.8 92 +32 +32 очень
душно
1017.6 1018.0
12 10.12 СВ 2 16 км 3/3 540 м
[Cu med, cong]
+20.8 +20.0 95 +26 +27 душно 1018.2 1018.0 +19.5 +30.7
15 10.12 ЮВ 2 16 км 1/1 540 м
[Cu med, cong]
+27.9 +21.4 68 +36 +44 очень
душно
1020.2 1020.0
18 10.12 ЮВ 2 16 км 3/3 660 м
[Cu med, cong]
+29.8 +23.2 68 +40 +48 очень
душно
1017.6 1018.0 +22.4 +30.1
21 10.12 ЮВ 2 16 км 6/1 660 м
[Cu med, cong Ac trans]
+29.0 +23.2 71 +39 +40 очень
душно
1014.1 1014.0
00 11.12 ЮВ 3 16 км 5/5 600 м
[Cu med, cong]
+27.2 +22.5 76 +36 +36 очень
душно
1018.6 1019.0 +22.4 +30.8
03 11.12 штиль 0 16 км 8/6 540 м
[Cu med, cong Ac trans]
+25.8 +22.8 84 +34 +34 очень
душно
1019.6 1020.0
06 11.12 СВ 2 16 км 5/4 480 м
[Cu Sc Ac trans]
+24.0 +22.3 90 +31 +31 очень
душно
1018.8 1019.0 +22.4 +30.8
09 11.12 С 2 16 км 8/5 480 м
[Cu Sc Ac trans]
+23.6 +21.6 89 +30 +30 очень
душно
1018.1 1018.0
12 11.12 С 2 16 км 1/1 480 м
[Cu med, cong]
+23.5 +21.8 90 +30 +31 очень
душно
1018.9 1019.0 +30.8
15 11.12 ЮВ 2 16 км 4/4 540 м
[Cu med, cong]
+28.3 +23.4 75 +38 +44 очень
душно
1019.6 1020.0
18 11.12 ЮВ 2 16 км 9/6 720 м
[Cu med, cong Ac cuf]
+28.8 +21.8 66 +37 +39 очень
душно
1018.4 1018.0 +23.2 +30.0
21 11.12 ЮВ 3 16 км 6/6 660 м
[Cb cap Ac trans]
+28.0 +21.8 69 +36 +36 очень
душно
1016.8 1017.0
00 12.12 штиль 0 16 км 8/6 600 м
[Sc Ac trans]
+25.8 +21.3 76 +33 +33 очень
душно
1018.2 1018.0 +23.2 +30.5
03 12.12 штиль 0 16 км 3/3 540 м
[Cu med, cong Ci fib]
+25.2 +22.7 86 +33 +33 очень
душно
1019.2 1019.0
06 12.12 С 2 16 км 3/3 540 м
[Cu med, cong]
+24.0 +21.7 87 +31 +31 очень
душно
1018.1 1018.0 +23.2 +30.5
09 12.12 штиль 0 16 км 6/6 540 м
[Cu med, cong]
+23.6 +21.3 87 +30 +30 очень
душно
1017.6 1018.0
12 12.12 штиль 0 16 км 3/3 480 м
[Cu med, cong]
+23.2 +21.5 90 +31 +32 очень
душно
1018.6 1019.0 +23.0 +30.5
15 12.12 В 2 16 км 4/4 600 м
[Cu med, cong]
+27.8 +22.6 73 +37 +43 очень
душно
1019.6 1020.0
18 12.12 Ю 2 16 км 6/5 750 м
[Cu med, cong Ac trans]
+30.2 +22.3 63 +39 +44 очень
душно
1017.4 1017.0 +23.0 +30.5
21 12.12 ЮВ 2 16 км 6/6 660 м
[Cu med, cong Ac trans]
+28.2 +22.6 72 +37 +38 очень
душно
1015.9 1016.0
00 13.12 Ю 2 16 км 8/6 600 м
[Cu med, cong Ac trans]
+28.0 +22.6 73 +37 +37 очень
душно
1016.9 1017.0 +23.0 +32.3
03 13.12 Ю 2 16 км {дождь} 6/5 480 м
[Cb cap As op]
+24.0 +22.6 92 +31 +31 очень
душно
1018.6 1019.0 4
06 13.12 С 2 16 км {дождь} 8/5 480 м
[Cu Sc Ac As]
+23.0 +21.6 92 +31 +31 очень
душно
1017.7 1018.0 +23.0 +32.3
09 13.12 С 2 16 км 3/3 480 м
[Cu Sc]
+22.0 +20.5 91 +28 +28 душно 1017.5 1018.0
12 13.12 С 2 16 км 1/1 480 м
[Cu med, cong]
+22.2 +20.5 90 +29 +29 очень
душно
1018.6 1019.0 +22.3 +32.3
18 13.12 16 км н/о +21.7 +19 +24 очень
холодно
1017.7 1018.0 +22.3 +30.4

 

Местоположение метеостанции Santo Domingo (Доминиканская Республика): широта 18.43 долгота -69.88 высота над уровнем моря 14 м.

В архиве по умолчанию представлена погода в Santo Domingo за последнюю неделю. Архивные данные за месяц целиком и за предыдущие месяцы, начиная с января 2011 года, Вы можете получить, выбрав интересующий диапазон дат из раскрывающегося списка и нажав кнопку "Ввод!".


*Определитесь, кто Вы:
робот инопланетянин человек

Внимание! Время в таблицах - всемирное. Для получения местного времени необходимо прибавить поправку, которая в Santo Domingo равна -4 ч.

Смотрите также архив погоды в соседних городах и на ближайших метеорологических станциях:

Погода в Las Americas (Доминиканская Республика) (23 км)
Погода в Sabana De La Mar (Доминиканская Республика) (87 км)
Погода в La Romana Int Airport (Доминиканская Республика) (101 км)
Погода в Barahona (Доминиканская Республика) (131 км)
Погода в Santiago (Доминиканская Республика) (143 км)
Погода в Punta Cana (Доминиканская Республика) (161 км)
Погода в Puerto Plata (Доминиканская Республика) (163 км)
Погода в Punta de Maisi (Куба) (492 км)
Погода в Charlotte Amalie St. Thomas (Виргинские Острова) (519 км)
Погода в Santiago de Cuba (Куба) (650 км)

Пояснения к столбцам:

Ветер - указаны скорость ветра в м/с - средняя за 10 мин, порывы в срок и между сроками (в фигурных скобках) и направление, откуда дует ветер: С - северный, СВ - северо-восточный, В - восточный, ЮВ - юго-восточный, Ю - южный, ЮЗ - юго-западный, З - западный, СЗ - северо-западный.
Видимость - горизонтальная дальность видимости в метрах или километрах. При видимости от 1 до 10 км при отсутствии осадков обычно наблюдается дымка, при ухудшении видимости до 1 км и менее - туман. В сухую погоду видимость может ухудшаться дымом, пылью или мглою.
Явления - указаны атмосферные явления, наблюдавшиеся в срок или в последний час перед сроком; фигурными скобками обозначены явления, наблюдавшиеся между сроками (за 1-3 часа до срока); квадратными скобками обозначены град или гололедные отложения с указанием их диаметра в мм.
Облачность - указаны через наклонную черту общая и нижняя облачность в баллах и высота нижней границы облаков в метрах; квадратными скобками обозначены формы облаков: Ci - перистые, Cs - перисто-слоистые, Cc - перисто-кучевые, Ac - высококучевые, As - высокослоистые, Sc - слоисто-кучевые, Ns - слоисто-дождевые, Cu - кучевые, Cb - кучево-дождевые. Подробнее классификацию облаков см. в Атласе облаков (PDF).
T - Температура воздуха - температура, измеренная на высоте 2 м над землей.
Td - Температура точки росы - температура, при понижении до которой содержащийся в воздухе водяной пар достигнет насыщения.
f - Относительная влажность воздуха - влажноcть воздуха, измеренная на высоте 2 м над землей.
Te - Эффективная температура - температура, которую ощущает одетый по сезону человек в тени. Характеристика душности погоды. При расчете учитывается влияние влажности воздуха и скорости ветра на теплоощущения человека.
Tes - Эффективная температура на солнце - температура, которую ощущает человек, с поправкой на солнечный нагрев. Характеристика знойности погоды. Зависит от высоты солнца над горизонтом, облачности и скорости ветра. Ночью, в пасмурную погоду, а также при ветре 12 м/с и более поправка равна нулю.
P - Атмосферное давление - приведенное к уровню моря атмосферное давление.
Po - Атмосферное давление - измеренное на уровне метеостанции атмосферное давление.
Tmin - Минимальная температура - минимум температуры воздуха на высоте 2 м над землей.
Tmax - Максимальная температура - максимум температуры воздуха на высоте 2 м над землей.
R - Количество осадков - Количество выпавших осадков за период времени, мм. При наведении курсора мыши на число - период времени, за который выпало указанное количество осадков.
R24 - Количество осадков - Количество выпавших осадков за 24 часа, мм.
S - Снежный покров - Высота снежного покрова, см. При наведении курсора мыши на число - состояние снежного покрова и степень покрытия местности в баллах.